Location: Unspecified
(49.2170°N, 0.0000°E)
Time: 15:16:59
(UTC+00:00)

Vanguard 3 - Pass Details

Date: 04 July 2019
Orbit: 507 x 3264 km, 33.4° (Epoch: 20 July)

Event Time Altitude Azimuth Distance (km) Brightness Sun altitude
Rises 08:00:25 0° 233° (SW) 7,165 11.6 35.9°
Reaches altitude 10° 08:05:40 10° 227° (SW) 6,199 11.4 36.7°
Maximum altitude 08:22:53 40° 167° (SSE) 3,809 11.2 39.5°
Drops below altitude 10° 08:35:54 10° 105° (ESE) 4,761 12.2 41.6°
Sets 08:39:18 0° 98° (E) 5,425 12.2 42.1°
